This is the latest recevied weather packets stored in our database for station/object AD8BV. If no packets are shown the sender has not sent any weather packets the latest 10 day(s).
| Time | Temp. | Humidity | Pressure | Rain* | Wind** | Luminosity | Snow |
|---|---|---|---|---|---|---|---|
| 1777931659 | 23.89° C | 50% | 1000.6 hPa | 0 mm | - | 79 W/m² | - |
| 1777931355 | 24.44° C | 48% | 1000.9 hPa | 0 mm | - | 72 W/m² | - |
| 1777931052 | 23.89° C | 51% | 1000.9 hPa | 0 mm | - | 184 W/m² | - |
| 1777930749 | 23.33° C | 50% | 1000.9 hPa | 0 mm | - | 216 W/m² | - |
| 1777930444 | 24.44° C | 49% | 1001.2 hPa | 0 mm | - | 85 W/m² | - |
| 1777930143 | 24.44° C | 48% | 1001 hPa | 0 mm | - | 281 W/m² | - |
| 1777929838 | 25° C | 49% | 1001.3 hPa | 0 mm | - | 187 W/m² | - |
| 1777929536 | 25° C | 48% | 1001.3 hPa | 0 mm | - | 367 W/m² | - |
| 1777929232 | 25° C | 49% | 1001.5 hPa | 0 mm | - | 392 W/m² | - |
| 1777928929 | 25° C | 51% | 1001.5 hPa | 0 mm | - | 428 W/m² | - |
| 1777928626 | 23.89° C | 50% | 1001.7 hPa | 0 mm | - | 283 W/m² | - |
| 1777928323 | 24.44° C | 50% | 1001.6 hPa | 0 mm | - | 95 W/m² | - |
| 1777928021 | 23.33° C | 49% | 1001.6 hPa | 0 mm | - | 493 W/m² | - |
| 1777927719 | 24.44° C | 48% | 1001.8 hPa | 0 mm | - | 134 W/m² | - |
| 1777927417 | 24.44° C | 46% | 1001.7 hPa | 0 mm | - | 469 W/m² | - |
| 1777927116 | 23.33° C | 49% | 1001.7 hPa | 0 mm | - | 526 W/m² | - |
| 1777926813 | 23.89° C | 46% | 1001.8 hPa | 0 mm | - | 112 W/m² | - |
| 1777926508 | 24.44° C | 46% | 1002.3 hPa | 0 mm | - | 445 W/m² | - |
| 1777926206 | 23.89° C | 45% | 1002 hPa | 0 mm | - | 582 W/m² | - |
| 1777925902 | 23.33° C | 46% | 1001.9 hPa | 0 mm | - | 144 W/m² | - |
| 1777925600 | 23.89° C | 47% | 1002.1 hPa | 0 mm | - | 169 W/m² | - |
| 1777925297 | 24.44° C | 45% | 1002 hPa | 0 mm | - | 162 W/m² | - |
| 1777924994 | 24.44° C | 45% | 1002.1 hPa | 0 mm | - | 629 W/m² | - |
| 1777924690 | 24.44° C | 45% | 1002 hPa | 0 mm | - | 632 W/m² | - |
| 1777924386 | 24.44° C | 42% | 1002.1 hPa | 0 mm | - | 422 W/m² | - |
* Rain latest hour (hover to see other rain measurements)
** Current wind speed in m/s (hover to see current wind gust speed)